This is the latest recevied weather packets stored in our database for station/object DB0RV-13. If no packets are shown the sender has not sent any weather packets the latest 10 day(s).
| Time | Temp. | Humidity | Pressure | Rain* | Wind** | Luminosity | Snow |
|---|---|---|---|---|---|---|---|
| 1777736701 | 22.78° C | 27% | 1016.9 hPa | - | - | - | - |
| 1777736402 | 23.33° C | 27% | 1017 hPa | - | - | - | - |
| 1777736102 | 23.33° C | 27% | 1017.1 hPa | - | - | - | - |
| 1777735802 | 23.33° C | 26% | 1017.1 hPa | - | - | - | - |
| 1777735502 | 23.89° C | 26% | 1017.2 hPa | - | - | - | - |
| 1777735202 | 23.89° C | 26% | 1017.3 hPa | - | - | - | - |
| 1777734901 | 23.89° C | 27% | 1017.4 hPa | - | - | - | - |
| 1777734601 | 23.89° C | 27% | 1017.5 hPa | - | - | - | - |
| 1777734302 | 23.33° C | 26% | 1017.5 hPa | - | - | - | - |
| 1777734002 | 23.33° C | 27% | 1017.5 hPa | - | - | - | - |
| 1777733702 | 23.89° C | 27% | 1017.6 hPa | - | - | - | - |
| 1777733401 | 22.78° C | 28% | 1017.7 hPa | - | - | - | - |
| 1777733102 | 22.78° C | 26% | 1017.8 hPa | - | - | - | - |
| 1777732801 | 22.78° C | 26% | 1017.9 hPa | - | - | - | - |
| 1777732502 | 22.78° C | 26% | 1018 hPa | - | - | - | - |
| 1777732202 | 23.33° C | 29% | 1018.1 hPa | - | - | - | - |
| 1777731902 | 23.89° C | 28% | 1018.1 hPa | - | - | - | - |
| 1777731601 | 23.33° C | 27% | 1018.1 hPa | - | - | - | - |
| 1777731302 | 22.78° C | 27% | 1018.1 hPa | - | - | - | - |
| 1777731002 | 22.78° C | 28% | 1018.1 hPa | - | - | - | - |
| 1777730702 | 23.33° C | 30% | 1018.3 hPa | - | - | - | - |
| 1777730402 | 22.78° C | 32% | 1018.3 hPa | - | - | - | - |
| 1777730102 | 22.78° C | 30% | 1018.4 hPa | - | - | - | - |
| 1777729802 | 22.78° C | 31% | 1018.4 hPa | - | - | - | - |
| 1777729502 | 23.33° C | 30% | 1018.6 hPa | - | - | - | - |
* Rain since midnight (hover to see other rain measurements)
** Current wind speed in m/s (hover to see current wind gust speed)